Year,Month,Day,Hour,Minute,Value (Times are PST for temperature in C)
2015,07,01,00,00,18.20
2015,07,01,00,01,18.20
2015,07,01,00,02,18.10
2015,07,01,00,03,18.10
2015,07,01,00,04,18.20
2015,07,01,00,05,18.20
2015,07,01,00,06,18.20
2015,07,01,00,07,18.20
2015,07,01,00,08,18.20
2015,07,01,00,09,18.20
2015,07,01,00,10,18.20
2015,07,01,00,11,18.10
2015,07,01,00,12,18.10
2015,07,01,00,13,18.10
2015,07,01,00,14,18.10
2015,07,01,00,15,18.10
2015,07,01,00,16,18.00
2015,07,01,00,17,18.00
2015,07,01,00,18,18.00
2015,07,01,00,19,18.00
2015,07,01,00,20,17.90
2015,07,01,00,21,17.90
2015,07,01,00,22,17.90
2015,07,01,00,23,17.90
2015,07,01,00,24,17.80
2015,07,01,00,25,17.80
2015,07,01,00,26,17.80
2015,07,01,00,27,17.80
2015,07,01,00,28,17.80
2015,07,01,00,29,17.70
2015,07,01,00,30,17.70
2015,07,01,00,31,17.70
2015,07,01,00,32,17.70
2015,07,01,00,33,17.70
2015,07,01,00,34,17.70
2015,07,01,00,35,17.60
2015,07,01,00,36,17.60
2015,07,01,00,37,17.60
2015,07,01,00,38,17.60
2015,07,01,00,39,17.60
2015,07,01,00,40,17.60
2015,07,01,00,41,17.50
2015,07,01,00,42,17.50
2015,07,01,00,43,17.50
2015,07,01,00,44,17.50
2015,07,01,00,45,17.40
2015,07,01,00,46,17.40
2015,07,01,00,47,17.40
2015,07,01,00,48,17.40
2015,07,01,00,49,17.40
2015,07,01,00,50,17.30
2015,07,01,00,51,17.30
2015,07,01,00,52,17.30
2015,07,01,00,53,17.30
2015,07,01,00,54,17.30
2015,07,01,00,55,17.30
2015,07,01,00,56,17.20
2015,07,01,00,57,17.20
2015,07,01,00,58,17.20
2015,07,01,00,59,17.20
2015,07,01,01,00,17.20
2015,07,01,01,01,17.20
2015,07,01,01,02,17.20
2015,07,01,01,03,17.20
2015,07,01,01,04,17.10
2015,07,01,01,05,17.10
2015,07,01,01,06,17.10
2015,07,01,01,07,17.10
2015,07,01,01,08,17.10
2015,07,01,01,09,17.10
2015,07,01,01,10,17.10
2015,07,01,01,11,17.00
2015,07,01,01,12,17.00
2015,07,01,01,13,17.00
2015,07,01,01,14,17.00
2015,07,01,01,15,17.00
2015,07,01,01,16,17.00
2015,07,01,01,17,17.00
2015,07,01,01,18,16.90
2015,07,01,01,19,16.90
2015,07,01,01,20,16.90
2015,07,01,01,21,16.90
2015,07,01,01,22,16.90
2015,07,01,01,23,16.90
2015,07,01,01,24,16.80
2015,07,01,01,25,16.80
2015,07,01,01,26,16.80
2015,07,01,01,27,16.80
2015,07,01,01,28,16.80
2015,07,01,01,29,16.80
2015,07,01,01,30,16.80
2015,07,01,01,31,16.80
2015,07,01,01,32,16.80
2015,07,01,01,33,16.70
2015,07,01,01,34,16.70
2015,07,01,01,35,16.70
2015,07,01,01,36,16.70
2015,07,01,01,37,16.70
2015,07,01,01,38,16.70
2015,07,01,01,39,16.60
2015,07,01,01,40,16.60
2015,07,01,01,41,16.60
2015,07,01,01,42,16.60
2015,07,01,01,43,16.60
2015,07,01,01,44,16.60
2015,07,01,01,45,16.50
2015,07,01,01,46,16.50
2015,07,01,01,47,16.50
2015,07,01,01,48,16.50
2015,07,01,01,49,16.40
2015,07,01,01,50,16.40
2015,07,01,01,51,16.40
2015,07,01,01,52,16.40
2015,07,01,01,53,16.30
2015,07,01,01,54,16.30
2015,07,01,01,55,16.30
2015,07,01,01,56,16.30
2015,07,01,01,57,16.30
2015,07,01,01,58,16.20
2015,07,01,01,59,16.20
2015,07,01,02,00,16.20
2015,07,01,02,01,16.20
2015,07,01,02,02,16.20
2015,07,01,02,03,16.20
2015,07,01,02,04,16.20
2015,07,01,02,05,16.10
2015,07,01,02,06,16.10
2015,07,01,02,07,16.10
2015,07,01,02,08,16.10
2015,07,01,02,09,16.10
2015,07,01,02,10,16.00
2015,07,01,02,11,16.00
2015,07,01,02,12,16.00
2015,07,01,02,13,15.90
2015,07,01,02,14,15.90
2015,07,01,02,15,15.90
2015,07,01,02,16,15.90
2015,07,01,02,17,15.80
2015,07,01,02,18,15.80
2015,07,01,02,19,15.80
2015,07,01,02,20,15.80
2015,07,01,02,21,15.80
2015,07,01,02,22,15.80
2015,07,01,02,23,15.80
2015,07,01,02,24,15.80
2015,07,01,02,25,15.80
2015,07,01,02,26,15.80
2015,07,01,02,27,15.80
2015,07,01,02,28,15.70
2015,07,01,02,29,15.70
2015,07,01,02,30,15.70
2015,07,01,02,31,15.70
2015,07,01,02,32,15.70
2015,07,01,02,33,15.70
2015,07,01,02,34,15.70
2015,07,01,02,35,15.60
2015,07,01,02,36,15.60
2015,07,01,02,37,15.60
2015,07,01,02,38,15.60
2015,07,01,02,39,15.60
2015,07,01,02,40,15.60
2015,07,01,02,41,15.60
2015,07,01,02,42,15.60
2015,07,01,02,43,15.60
2015,07,01,02,44,15.60
2015,07,01,02,45,15.60
2015,07,01,02,46,15.60
2015,07,01,02,47,15.60
2015,07,01,02,48,15.60
2015,07,01,02,49,15.60
2015,07,01,02,50,15.60
2015,07,01,02,51,15.60
2015,07,01,02,52,15.60
2015,07,01,02,53,15.60
2015,07,01,02,54,15.60
2015,07,01,02,55,15.60
2015,07,01,02,56,15.60
2015,07,01,02,57,15.60
2015,07,01,02,58,15.60
2015,07,01,02,59,15.50
2015,07,01,03,00,15.50
2015,07,01,03,01,15.50
2015,07,01,03,02,15.50
2015,07,01,03,03,15.40
2015,07,01,03,06,15.40
2015,07,01,03,07,15.40
2015,07,01,03,08,15.40
2015,07,01,03,09,15.30
2015,07,01,03,10,15.30
2015,07,01,03,11,15.30
2015,07,01,03,12,15.30
2015,07,01,03,13,15.30
2015,07,01,03,14,15.30
2015,07,01,03,15,15.30
2015,07,01,03,16,15.20
2015,07,01,03,17,15.20
2015,07,01,03,18,15.20
2015,07,01,03,19,15.20
2015,07,01,03,20,15.20
2015,07,01,03,21,15.10
2015,07,01,03,22,15.00
2015,07,01,03,23,15.00
2015,07,01,03,24,15.00
2015,07,01,03,25,15.00
2015,07,01,03,26,15.00
2015,07,01,03,27,15.00
2015,07,01,03,28,15.00
2015,07,01,03,29,15.00
2015,07,01,03,30,15.00
2015,07,01,03,31,15.00
2015,07,01,03,32,15.00
2015,07,01,03,33,15.00
2015,07,01,03,34,15.00
2015,07,01,03,35,15.00
2015,07,01,03,36,15.00
2015,07,01,03,37,15.00
2015,07,01,03,38,15.00
2015,07,01,03,39,15.00
2015,07,01,03,40,15.00
2015,07,01,03,41,15.00
2015,07,01,03,42,15.00
2015,07,01,03,43,15.00
2015,07,01,03,44,15.00
2015,07,01,03,45,15.00
2015,07,01,03,46,15.00
2015,07,01,03,47,14.90
2015,07,01,03,48,14.90
2015,07,01,03,49,14.80
2015,07,01,03,50,14.80
2015,07,01,03,51,14.80
2015,07,01,03,52,14.80
2015,07,01,03,53,14.80
2015,07,01,03,54,14.80
2015,07,01,03,55,14.70
2015,07,01,03,56,14.70
2015,07,01,03,57,14.70
2015,07,01,03,58,14.70
2015,07,01,03,59,14.70
2015,07,01,04,00,14.70
2015,07,01,04,01,14.80
2015,07,01,04,02,14.70
2015,07,01,04,03,14.70
2015,07,01,04,04,14.70
2015,07,01,04,05,14.70
2015,07,01,04,06,14.70
2015,07,01,04,07,14.70
2015,07,01,04,08,14.70
2015,07,01,04,09,14.70
2015,07,01,04,10,14.70
2015,07,01,04,11,14.70
2015,07,01,04,12,14.80
2015,07,01,04,13,14.80
2015,07,01,04,14,14.80
2015,07,01,04,15,14.80
2015,07,01,04,16,14.80
2015,07,01,04,17,14.80
2015,07,01,04,18,14.80
2015,07,01,04,19,14.80
2015,07,01,04,20,14.80
2015,07,01,04,21,14.80
2015,07,01,04,22,14.80
2015,07,01,04,23,14.80
2015,07,01,04,24,14.80
2015,07,01,04,25,14.80
2015,07,01,04,26,14.80
2015,07,01,04,27,14.70
2015,07,01,04,28,14.70
2015,07,01,04,29,14.70
2015,07,01,04,30,14.70
2015,07,01,04,31,14.70
2015,07,01,04,32,14.70
2015,07,01,04,33,14.70
2015,07,01,04,34,14.70
2015,07,01,04,35,14.60
2015,07,01,04,36,14.60
2015,07,01,04,37,14.60
2015,07,01,04,38,14.60
2015,07,01,04,39,14.60
2015,07,01,04,40,14.60
2015,07,01,04,41,14.50
2015,07,01,04,42,14.50
2015,07,01,04,43,14.50
2015,07,01,04,44,14.40
2015,07,01,04,45,14.40
2015,07,01,04,46,14.40
2015,07,01,04,47,14.40
2015,07,01,04,48,14.40
2015,07,01,04,49,14.40
2015,07,01,04,50,14.40
2015,07,01,04,51,14.40
2015,07,01,04,52,14.30
2015,07,01,04,53,14.30
2015,07,01,04,54,14.30
2015,07,01,04,55,14.30
2015,07,01,04,56,14.30
2015,07,01,04,57,14.30
2015,07,01,04,58,14.30
2015,07,01,04,59,14.30
2015,07,01,05,00,14.30
2015,07,01,05,01,14.30
2015,07,01,05,02,14.30
2015,07,01,05,03,14.30
2015,07,01,05,04,14.30
2015,07,01,05,05,14.30
2015,07,01,05,06,14.30
2015,07,01,05,07,14.30
2015,07,01,05,08,14.30
2015,07,01,05,09,14.30
2015,07,01,05,10,14.20
2015,07,01,05,11,14.20
2015,07,01,05,12,14.20
2015,07,01,05,13,14.20
2015,07,01,05,14,14.20
2015,07,01,05,15,14.20
2015,07,01,05,16,14.20
2015,07,01,05,17,14.20
2015,07,01,05,18,14.10
2015,07,01,05,19,14.10
2015,07,01,05,20,14.10
2015,07,01,05,21,14.10
2015,07,01,05,22,14.10
2015,07,01,05,23,14.10
2015,07,01,05,24,14.10
2015,07,01,05,25,14.10
2015,07,01,05,26,14.10
2015,07,01,05,27,14.10
2015,07,01,05,28,14.10
2015,07,01,05,29,14.10
2015,07,01,05,30,14.10
2015,07,01,05,31,14.10
2015,07,01,05,32,14.10
2015,07,01,05,33,14.10
2015,07,01,05,34,14.10
2015,07,01,05,35,14.10
2015,07,01,05,36,14.10
2015,07,01,05,37,14.10
2015,07,01,05,38,14.10
2015,07,01,05,39,14.10
2015,07,01,05,40,14.10
2015,07,01,05,41,14.10
2015,07,01,05,42,14.10
2015,07,01,05,43,14.00
2015,07,01,05,44,14.00
2015,07,01,05,45,14.00
2015,07,01,05,46,14.00
2015,07,01,05,47,14.00
2015,07,01,05,48,14.00
2015,07,01,05,49,14.00
2015,07,01,05,50,14.00
2015,07,01,05,51,14.00
2015,07,01,05,52,14.00
2015,07,01,05,53,14.00
2015,07,01,05,54,14.10
2015,07,01,05,55,14.10
2015,07,01,05,56,14.10
2015,07,01,05,57,14.10
2015,07,01,05,58,14.10
2015,07,01,05,59,14.10
2015,07,01,06,00,14.10
2015,07,01,06,01,14.20
2015,07,01,06,02,14.20
2015,07,01,06,03,14.20
2015,07,01,06,04,14.20
2015,07,01,06,05,14.20
2015,07,01,06,06,14.20
2015,07,01,06,07,14.20
2015,07,01,06,08,14.20
2015,07,01,06,09,14.20
2015,07,01,06,10,14.20
2015,07,01,06,11,14.20
2015,07,01,06,12,14.20
2015,07,01,06,13,14.20
2015,07,01,06,14,14.20
2015,07,01,06,15,14.20
2015,07,01,06,16,14.30
2015,07,01,06,17,14.30
2015,07,01,06,18,14.30
2015,07,01,06,19,14.30
2015,07,01,06,20,14.30
2015,07,01,06,21,14.30
2015,07,01,06,22,14.30
2015,07,01,06,23,14.30
2015,07,01,06,24,14.30
2015,07,01,06,25,14.40
2015,07,01,06,26,14.40
2015,07,01,06,27,14.40
2015,07,01,06,28,14.40
2015,07,01,06,29,14.40
2015,07,01,06,30,14.40
2015,07,01,06,31,14.40
2015,07,01,06,32,14.40
2015,07,01,06,33,14.50
2015,07,01,06,34,14.50
2015,07,01,06,35,14.60
2015,07,01,06,36,14.60
2015,07,01,06,37,14.60
2015,07,01,06,38,14.70
2015,07,01,06,39,14.70
2015,07,01,06,40,14.70
2015,07,01,06,41,14.70
2015,07,01,06,42,14.80
2015,07,01,06,43,14.80
2015,07,01,06,44,14.80
2015,07,01,06,45,14.80
2015,07,01,06,46,14.90
2015,07,01,06,47,14.90
2015,07,01,06,48,15.00
2015,07,01,06,49,15.00
2015,07,01,06,50,15.00
2015,07,01,06,51,15.00
2015,07,01,06,52,15.00
2015,07,01,06,53,15.10
2015,07,01,06,54,15.30
2015,07,01,06,55,15.40
2015,07,01,06,56,15.50
2015,07,01,06,57,15.60
2015,07,01,06,58,15.60
2015,07,01,06,59,15.70
2015,07,01,07,00,15.80
2015,07,01,07,01,15.90
2015,07,01,07,02,16.00
2015,07,01,07,03,16.10
2015,07,01,07,04,16.20
2015,07,01,07,05,16.30
2015,07,01,07,06,16.40
2015,07,01,07,07,16.50
2015,07,01,07,08,16.60
2015,07,01,07,09,16.70
2015,07,01,07,10,16.80
2015,07,01,07,11,16.80
2015,07,01,07,12,16.90
2015,07,01,07,13,17.00
2015,07,01,07,14,17.10
2015,07,01,07,15,17.10
2015,07,01,07,16,17.20
2015,07,01,07,17,17.30
2015,07,01,07,18,17.30
2015,07,01,07,19,17.40
2015,07,01,07,20,17.50
2015,07,01,07,21,17.60
2015,07,01,07,22,17.70
2015,07,01,07,23,17.80
2015,07,01,07,24,17.80
2015,07,01,07,25,17.90
2015,07,01,07,26,17.90
2015,07,01,07,27,18.00
2015,07,01,07,28,18.10
2015,07,01,07,29,18.10
2015,07,01,07,30,18.20
2015,07,01,07,31,18.30
2015,07,01,07,32,18.40
2015,07,01,07,33,18.50
2015,07,01,07,34,18.70
2015,07,01,07,35,18.80
2015,07,01,07,36,18.90
2015,07,01,07,37,19.10
2015,07,01,07,38,19.20
2015,07,01,07,39,19.30
2015,07,01,07,40,19.40
2015,07,01,07,41,19.50
2015,07,01,07,42,19.60
2015,07,01,07,43,19.60
2015,07,01,07,44,19.70
2015,07,01,07,45,19.80
2015,07,01,07,46,19.80
2015,07,01,07,47,19.90
2015,07,01,07,48,19.90
2015,07,01,07,49,20.00
2015,07,01,07,50,20.00
2015,07,01,07,51,20.00
2015,07,01,07,52,20.00
2015,07,01,07,53,20.00
2015,07,01,07,54,20.00
2015,07,01,07,55,20.10
2015,07,01,07,56,20.20
2015,07,01,07,57,20.30
2015,07,01,07,58,20.30
2015,07,01,07,59,20.40
2015,07,01,08,00,20.40
2015,07,01,08,01,20.40
2015,07,01,08,02,20.50
2015,07,01,08,03,20.60
2015,07,01,08,04,20.60
2015,07,01,08,05,20.50
2015,07,01,08,06,20.40
2015,07,01,08,07,20.40
2015,07,01,08,08,20.50
2015,07,01,08,09,20.50
2015,07,01,08,10,20.50
2015,07,01,08,11,20.50
2015,07,01,08,12,20.60
2015,07,01,08,13,20.60
2015,07,01,08,14,20.70
2015,07,01,08,15,20.80
2015,07,01,08,16,20.90
2015,07,01,08,17,21.00
2015,07,01,08,18,21.10
2015,07,01,08,19,21.20
2015,07,01,08,20,21.20
2015,07,01,08,21,21.20
2015,07,01,08,22,21.20
2015,07,01,08,23,21.30
2015,07,01,08,24,21.30
2015,07,01,08,25,21.40
2015,07,01,08,26,21.40
2015,07,01,08,27,21.40
2015,07,01,08,28,21.50
2015,07,01,08,29,21.40
2015,07,01,08,30,21.50
2015,07,01,08,31,21.50
2015,07,01,08,32,21.60
2015,07,01,08,33,21.60
2015,07,01,08,34,21.60
2015,07,01,08,35,21.60
2015,07,01,08,36,21.70
2015,07,01,08,37,21.80
2015,07,01,08,38,21.80
2015,07,01,08,39,21.80
2015,07,01,08,40,21.80
2015,07,01,08,41,21.90
2015,07,01,08,42,21.90
2015,07,01,08,43,21.90
2015,07,01,08,44,21.80
2015,07,01,08,45,21.80
2015,07,01,08,46,21.80
2015,07,01,08,47,21.70
2015,07,01,08,48,21.70
2015,07,01,08,49,21.70
2015,07,01,08,50,21.70
2015,07,01,08,51,21.70
2015,07,01,08,52,21.80
2015,07,01,08,53,21.80
2015,07,01,08,54,21.80
2015,07,01,08,55,21.80
2015,07,01,08,56,21.90
2015,07,01,08,57,21.80
2015,07,01,08,58,21.80
2015,07,01,08,59,21.80
2015,07,01,09,00,21.80
2015,07,01,09,01,21.80
2015,07,01,09,02,21.90
2015,07,01,09,03,22.00
2015,07,01,09,04,22.00
2015,07,01,09,05,22.10
2015,07,01,09,06,22.20
2015,07,01,09,07,22.30
2015,07,01,09,08,22.40
2015,07,01,09,09,22.50
2015,07,01,09,10,22.60
2015,07,01,09,11,22.70
2015,07,01,09,12,22.80
2015,07,01,09,13,22.80
2015,07,01,09,14,22.90
2015,07,01,09,15,23.00
2015,07,01,09,16,23.00
2015,07,01,09,17,23.10
2015,07,01,09,18,23.20
2015,07,01,09,19,23.40
2015,07,01,09,20,23.50
2015,07,01,09,21,23.60
2015,07,01,09,22,23.70
2015,07,01,09,23,23.80
2015,07,01,09,24,23.90
2015,07,01,09,25,23.90
2015,07,01,09,26,24.00
2015,07,01,09,27,24.00
2015,07,01,09,28,24.10
2015,07,01,09,29,24.20
2015,07,01,09,30,24.30
2015,07,01,09,31,24.40
2015,07,01,09,32,24.50
2015,07,01,09,33,24.60
2015,07,01,09,34,24.70
2015,07,01,09,35,24.80
2015,07,01,09,36,24.90
2015,07,01,09,37,24.90
2015,07,01,09,38,25.00
2015,07,01,09,39,25.00
2015,07,01,09,40,25.00
2015,07,01,09,41,24.90
2015,07,01,09,42,24.90
2015,07,01,09,43,24.90
2015,07,01,09,44,24.90
2015,07,01,09,45,24.90
2015,07,01,09,46,24.90
2015,07,01,09,47,25.00
2015,07,01,09,48,25.10
2015,07,01,09,49,25.10
2015,07,01,09,50,25.20
2015,07,01,09,51,25.30
2015,07,01,09,52,25.40
2015,07,01,09,53,25.40
2015,07,01,09,54,25.40
2015,07,01,09,55,25.50
2015,07,01,09,56,25.50
2015,07,01,09,57,25.60
2015,07,01,09,58,25.60
2015,07,01,09,59,25.60
2015,07,01,10,00,25.60
2015,07,01,10,01,25.60
2015,07,01,10,02,25.60
2015,07,01,10,03,25.60
2015,07,01,10,04,25.60
2015,07,01,10,05,25.70
2015,07,01,10,06,25.70
2015,07,01,10,07,25.80
2015,07,01,10,08,25.90
2015,07,01,10,09,25.90
2015,07,01,10,10,26.00
2015,07,01,10,11,26.10
2015,07,01,10,12,26.00
2015,07,01,10,13,25.90
2015,07,01,10,14,25.90
2015,07,01,10,15,25.90
2015,07,01,10,16,26.00
2015,07,01,10,17,26.00
2015,07,01,10,18,26.10
2015,07,01,10,19,26.10
2015,07,01,10,20,26.10
2015,07,01,10,21,26.20
2015,07,01,10,22,26.20
2015,07,01,10,23,26.20
2015,07,01,10,24,26.30
2015,07,01,10,25,26.30
2015,07,01,10,26,26.50
2015,07,01,10,27,26.60
2015,07,01,10,28,26.60
2015,07,01,10,29,26.60
2015,07,01,10,30,26.70
2015,07,01,10,31,26.70
2015,07,01,10,32,26.60
2015,07,01,10,33,26.70
2015,07,01,10,34,26.70
2015,07,01,10,35,26.60
2015,07,01,10,36,26.60
2015,07,01,10,37,26.50
2015,07,01,10,38,26.50
2015,07,01,10,39,26.60
2015,07,01,10,40,26.60
2015,07,01,10,41,26.70
2015,07,01,10,42,26.80
2015,07,01,10,43,26.80
2015,07,01,10,44,26.70
2015,07,01,10,45,26.70
2015,07,01,10,46,26.60
2015,07,01,10,47,26.60
2015,07,01,10,48,26.60
2015,07,01,10,49,26.70
2015,07,01,10,50,26.60
2015,07,01,10,51,26.30
2015,07,01,10,52,26.00
2015,07,01,10,53,25.90
2015,07,01,10,54,25.90
2015,07,01,10,55,25.80
2015,07,01,10,56,25.80
2015,07,01,10,57,25.80
2015,07,01,10,58,25.90
2015,07,01,10,59,25.90
2015,07,01,11,00,25.90
2015,07,01,11,01,25.90
2015,07,01,11,02,25.90
2015,07,01,11,03,25.80
2015,07,01,11,04,25.80
2015,07,01,11,05,25.80
2015,07,01,11,06,25.70
2015,07,01,11,07,25.70
2015,07,01,11,08,25.70
2015,07,01,11,09,25.70
2015,07,01,11,10,25.60
2015,07,01,11,11,25.60
2015,07,01,11,12,25.60
2015,07,01,11,13,25.50
2015,07,01,11,14,25.40
2015,07,01,11,15,25.40
2015,07,01,11,16,25.40
2015,07,01,11,17,25.30
2015,07,01,11,18,25.30
2015,07,01,11,19,25.40
2015,07,01,11,20,25.30
2015,07,01,11,21,25.20
2015,07,01,11,22,25.20
2015,07,01,11,23,25.20
2015,07,01,11,24,25.20
2015,07,01,11,25,25.30
2015,07,01,11,26,25.30
2015,07,01,11,27,25.40
2015,07,01,11,28,25.60
2015,07,01,11,29,25.70
2015,07,01,11,30,25.90
2015,07,01,11,31,26.10
2015,07,01,11,32,26.30
2015,07,01,11,33,26.40
2015,07,01,11,34,26.30
2015,07,01,11,35,26.30
2015,07,01,11,36,26.30
2015,07,01,11,37,26.30
2015,07,01,11,38,26.40
2015,07,01,11,39,26.40
2015,07,01,11,40,26.60
2015,07,01,11,41,26.70
2015,07,01,11,42,26.80
2015,07,01,11,43,26.70
2015,07,01,11,44,26.50
2015,07,01,11,45,26.30
2015,07,01,11,46,26.20
2015,07,01,11,47,26.00
2015,07,01,11,48,25.80
2015,07,01,11,49,25.60
2015,07,01,11,50,25.60
2015,07,01,11,51,25.50
2015,07,01,11,52,25.30
2015,07,01,11,53,25.20
2015,07,01,11,54,25.20
2015,07,01,11,55,25.20
2015,07,01,11,56,25.20
2015,07,01,11,57,25.20
2015,07,01,11,58,25.10
2015,07,01,11,59,25.10
2015,07,01,12,00,25.20
2015,07,01,12,01,25.10
2015,07,01,12,02,25.10
2015,07,01,12,03,25.00
2015,07,01,12,04,24.90
2015,07,01,12,05,24.90
2015,07,01,12,06,25.00
2015,07,01,12,07,25.10
2015,07,01,12,08,25.20
2015,07,01,12,09,25.30
2015,07,01,12,10,25.30
2015,07,01,12,11,25.30
2015,07,01,12,12,25.20
2015,07,01,12,13,25.20
2015,07,01,12,14,25.10
2015,07,01,12,15,25.20
2015,07,01,12,16,25.30
2015,07,01,12,17,25.50
2015,07,01,12,18,25.70
2015,07,01,12,19,25.90
2015,07,01,12,20,26.00
2015,07,01,12,21,26.20
2015,07,01,12,22,26.30
2015,07,01,12,23,26.50
2015,07,01,12,24,26.60
2015,07,01,12,25,26.70
2015,07,01,12,26,26.80
2015,07,01,12,27,26.90
2015,07,01,12,28,26.90
2015,07,01,12,29,27.00
2015,07,01,12,30,27.00
2015,07,01,12,31,26.90
2015,07,01,12,32,26.70
2015,07,01,12,33,26.60
2015,07,01,12,34,26.60
2015,07,01,12,35,26.70
2015,07,01,12,36,26.80
2015,07,01,12,37,26.90
2015,07,01,12,38,27.10
2015,07,01,12,39,27.30
2015,07,01,12,40,27.40
2015,07,01,12,41,27.40
2015,07,01,12,42,27.40
2015,07,01,12,43,27.50
2015,07,01,12,44,27.60
2015,07,01,12,45,27.60
2015,07,01,12,46,27.70
2015,07,01,12,47,27.80
2015,07,01,12,48,27.80
2015,07,01,12,49,27.90
2015,07,01,12,50,28.00
2015,07,01,12,51,28.20
2015,07,01,12,52,28.30
2015,07,01,12,53,28.30
2015,07,01,12,54,28.30
2015,07,01,12,55,28.30
2015,07,01,12,56,28.30
2015,07,01,12,57,28.30
2015,07,01,12,58,28.40
2015,07,01,12,59,28.40
2015,07,01,13,00,28.20
2015,07,01,13,01,28.00
2015,07,01,13,02,27.90
2015,07,01,13,03,27.90
2015,07,01,13,04,28.00
2015,07,01,13,05,28.20
2015,07,01,13,06,28.20
2015,07,01,13,07,28.20
2015,07,01,13,08,28.10
2015,07,01,13,09,28.00
2015,07,01,13,10,28.00
2015,07,01,13,11,28.10
2015,07,01,13,12,28.20
2015,07,01,13,13,28.20
2015,07,01,13,14,28.30
2015,07,01,13,15,28.50
2015,07,01,13,16,28.60
2015,07,01,13,17,28.70
2015,07,01,13,18,28.70
2015,07,01,13,19,28.70
2015,07,01,13,20,28.80
2015,07,01,13,21,29.00
2015,07,01,13,22,29.10
2015,07,01,13,23,29.10
2015,07,01,13,24,29.20
2015,07,01,13,25,29.20
2015,07,01,13,26,29.10
2015,07,01,13,27,28.90
2015,07,01,13,28,28.90
2015,07,01,13,29,29.00
2015,07,01,13,30,29.00
2015,07,01,13,31,29.10
2015,07,01,13,32,29.10
2015,07,01,13,33,29.10
2015,07,01,13,34,28.90
2015,07,01,13,35,28.80
2015,07,01,13,36,28.70
2015,07,01,13,37,28.70
2015,07,01,13,38,28.60
2015,07,01,13,39,28.70
2015,07,01,13,40,28.80
2015,07,01,13,41,28.90
2015,07,01,13,42,29.10
2015,07,01,13,43,29.20
2015,07,01,13,44,29.40
2015,07,01,13,45,29.50
2015,07,01,13,46,29.60
2015,07,01,13,47,29.60
2015,07,01,13,48,29.60
2015,07,01,13,49,29.40
2015,07,01,13,50,29.40
2015,07,01,13,51,29.40
2015,07,01,13,52,29.30
2015,07,01,13,53,29.30
2015,07,01,13,54,29.20
2015,07,01,13,55,29.20
2015,07,01,13,56,29.20
2015,07,01,13,57,29.20
2015,07,01,13,58,29.30
2015,07,01,13,59,29.30
2015,07,01,14,00,29.20
2015,07,01,14,01,29.20
2015,07,01,14,02,29.30
2015,07,01,14,03,29.30
2015,07,01,14,04,29.30
2015,07,01,14,05,29.40
2015,07,01,14,06,29.40
2015,07,01,14,07,29.30
2015,07,01,14,08,29.30
2015,07,01,14,09,29.30
2015,07,01,14,10,29.20
2015,07,01,14,11,29.10
2015,07,01,14,12,29.00
2015,07,01,14,13,29.00
2015,07,01,14,14,29.00
2015,07,01,14,15,29.10
2015,07,01,14,16,29.20
2015,07,01,14,17,29.40
2015,07,01,14,18,29.40
2015,07,01,14,19,29.40
2015,07,01,14,20,29.40
2015,07,01,14,21,29.30
2015,07,01,14,22,29.30
2015,07,01,14,23,29.30
2015,07,01,14,24,29.40
2015,07,01,14,25,29.40
2015,07,01,14,26,29.50
2015,07,01,14,27,29.60
2015,07,01,14,28,29.70
2015,07,01,14,29,29.80
2015,07,01,14,30,29.90
2015,07,01,14,31,29.90
2015,07,01,14,32,29.60
2015,07,01,14,33,29.40
2015,07,01,14,34,29.30
2015,07,01,14,35,29.40
2015,07,01,14,36,29.60
2015,07,01,14,37,29.70
2015,07,01,14,38,29.80
2015,07,01,14,39,29.90
2015,07,01,14,40,30.10
2015,07,01,14,41,30.30
2015,07,01,14,42,30.50
2015,07,01,14,43,30.70
2015,07,01,14,44,30.80
2015,07,01,14,45,30.90
2015,07,01,14,46,31.00
2015,07,01,14,47,31.10
2015,07,01,14,48,31.10
2015,07,01,14,49,31.10
2015,07,01,14,50,31.20
2015,07,01,14,51,31.20
2015,07,01,14,52,31.00
2015,07,01,14,53,30.80
2015,07,01,14,54,30.50
2015,07,01,14,55,30.30
2015,07,01,14,56,30.10
2015,07,01,14,57,29.80
2015,07,01,14,58,29.50
2015,07,01,14,59,29.30
2015,07,01,15,00,29.20
2015,07,01,15,01,29.10
2015,07,01,15,02,29.10
2015,07,01,15,03,29.10
2015,07,01,15,04,29.10
2015,07,01,15,05,29.00
2015,07,01,15,06,28.90
2015,07,01,15,07,28.90
2015,07,01,15,08,29.00
2015,07,01,15,09,29.20
2015,07,01,15,10,29.40
2015,07,01,15,11,29.60
2015,07,01,15,12,29.70
2015,07,01,15,13,29.80
2015,07,01,15,14,29.70
2015,07,01,15,15,29.70
2015,07,01,15,16,29.70
2015,07,01,15,17,29.80
2015,07,01,15,18,29.70
2015,07,01,15,19,29.70
2015,07,01,15,20,29.70
2015,07,01,15,21,29.70
2015,07,01,15,22,29.70
2015,07,01,15,23,29.70
2015,07,01,15,24,29.80
2015,07,01,15,25,29.90
2015,07,01,15,26,29.90
2015,07,01,15,27,29.80
2015,07,01,15,28,29.80
2015,07,01,15,29,29.80
2015,07,01,15,30,29.70
2015,07,01,15,31,29.70
2015,07,01,15,32,29.50
2015,07,01,15,33,29.40
2015,07,01,15,34,29.20
2015,07,01,15,35,29.10
2015,07,01,15,36,29.10
2015,07,01,15,37,29.10
2015,07,01,15,38,29.00
2015,07,01,15,39,29.00
2015,07,01,15,40,29.00
2015,07,01,15,41,28.90
2015,07,01,15,42,28.80
2015,07,01,15,43,28.70
2015,07,01,15,44,28.70
2015,07,01,15,45,28.70
2015,07,01,15,46,28.60
2015,07,01,15,47,28.60
2015,07,01,15,48,28.70
2015,07,01,15,49,28.70
2015,07,01,15,50,28.70
2015,07,01,15,51,28.70
2015,07,01,15,52,28.70
2015,07,01,15,53,28.70
2015,07,01,15,54,28.70
2015,07,01,15,55,28.70
2015,07,01,15,56,28.60
2015,07,01,15,57,28.40
2015,07,01,15,58,28.30
2015,07,01,15,59,28.20
2015,07,01,16,00,28.20
2015,07,01,16,01,28.10
2015,07,01,16,02,28.10
2015,07,01,16,03,28.10
2015,07,01,16,04,28.10
2015,07,01,16,05,28.10
2015,07,01,16,06,28.10
2015,07,01,16,07,28.10
2015,07,01,16,08,28.10
2015,07,01,16,09,28.10
2015,07,01,16,10,28.10
2015,07,01,16,11,28.20
2015,07,01,16,12,28.20
2015,07,01,16,13,28.20
2015,07,01,16,14,28.30
2015,07,01,16,15,28.30
2015,07,01,16,16,28.40
2015,07,01,16,17,28.40
2015,07,01,16,18,28.40
2015,07,01,16,19,28.40
2015,07,01,16,20,28.40
2015,07,01,16,21,28.50
2015,07,01,16,22,28.60
2015,07,01,16,23,28.70
2015,07,01,16,24,28.70
2015,07,01,16,25,28.70
2015,07,01,16,26,28.70
2015,07,01,16,27,28.60
2015,07,01,16,28,28.60
2015,07,01,16,29,28.60
2015,07,01,16,30,28.60
2015,07,01,16,31,28.60
2015,07,01,16,32,28.60
2015,07,01,16,33,28.60
2015,07,01,16,34,28.70
2015,07,01,16,35,28.70
2015,07,01,16,36,28.80
2015,07,01,16,37,28.90
2015,07,01,16,38,28.90
2015,07,01,16,39,29.10
2015,07,01,16,40,29.20
2015,07,01,16,41,29.30
2015,07,01,16,42,29.30
2015,07,01,16,43,29.40
2015,07,01,16,44,29.50
2015,07,01,16,45,29.60
2015,07,01,16,46,29.70
2015,07,01,16,47,29.70
2015,07,01,16,48,29.70
2015,07,01,16,49,29.70
2015,07,01,16,50,29.60
2015,07,01,16,51,29.60
2015,07,01,16,52,29.60
2015,07,01,16,53,29.60
2015,07,01,16,54,29.70
2015,07,01,16,55,29.70
2015,07,01,16,56,29.60
2015,07,01,16,57,29.70
2015,07,01,16,58,29.60
2015,07,01,16,59,29.60
2015,07,01,17,00,29.60
2015,07,01,17,01,29.60
2015,07,01,17,02,29.60
2015,07,01,17,03,29.70
2015,07,01,17,04,29.90
2015,07,01,17,05,30.10
2015,07,01,17,06,30.20
2015,07,01,17,07,30.30
2015,07,01,17,08,30.40
2015,07,01,17,09,30.40
2015,07,01,17,10,30.50
2015,07,01,17,11,30.60
2015,07,01,17,12,30.60
2015,07,01,17,13,30.60
2015,07,01,17,14,30.50
2015,07,01,17,15,30.50
2015,07,01,17,16,30.50
2015,07,01,17,17,30.30
2015,07,01,17,18,30.30
2015,07,01,17,19,30.40
2015,07,01,17,20,30.50
2015,07,01,17,21,30.60